User: anonymous   Login
Location: Unspecified
(0.0000°N, 0.0000°E)
Time: 02:14:04
(UTC+00:00)
Language:

A-11 Canister half - Orbit

View from above orbital plane
View from above orbital plane
View from above satellite
View from above satellite

Ground track
Ground track

The orbit data is extracted from the following two-line orbital elements,

1 00051U 60009C   15238.51279303 -.00000139  00000-0 -52406-3 0  9995
2 00051 047.2150 022.9007 0103509 339.6724 019.9961 12.18256338449897
Epoch (UTC): 26 August 2015 12:18:25
Eccentricity: 0.0103509
inclination: 47.2150°
perigee height: 1517 km
apogee height: 1683 km
right ascension of ascending node: 22.9007°
argument of perigee: 339.6724°
revolutions per day: 12.18256338
mean anomaly at epoch: 19.9961°
orbit number at epoch: 44989

The dashed part of the orbit path shows where the satellite is in the earth's shadow,  

DLR